Dewpoint
32 32 32 32 33 34 34 34 34 34 34 34 34 34 35 34 34 33 34 33 33 33
32 32 32 33 33 34 34 35 35 34 34 35 35 35 34 34 32 32 33 33 34 33
32 32 33 33 33 34 34 34 34 34 34 35 35 34 34 33 32 31 31 32 33 34
32 32 33 33 33 33 34 34 33 34 34 34 34 33 32 32 31 30 30 31 34 35
32 32 32 32 33 33 33 33 33 33 33 33 33 32 32 31 30 29 30 32 34 34
32 32 32 32 32 32 32 32 32 32 32 32 32 31 31 31 30 30 31 34 33 34
31 32 32 32 32 32 31 31 30 31 31 32 31 30 31 30 30 30 33 34 35 34
32 32 32 32 32 31 31 30 30 30 30 30 30 29 29 30 29 30 32 33 34 35
31 32 32 32 32 31 31 31 30 30 29 29 29 34 36 35 29 30 32 32 34 34
31 31 32 32 32 31 31 30 30 30 30 29 29 36 37 37 34 33 33 33 34 33
31 31 31 32 31 31 31 30 30 30 30 30 29 37 38 38 34 34 34 34 33 32
30 30 31 31 31 31 31 30 30 30 30 29 29 36 38 36 34 34 33 34 33 33
31 30 30 31 31 31 31 30 31 30 30 33 29 35 38 36 34 34 33 33 34 38
30 31 30 30 31 31 31 30 31 30 30 30 32 31 37 38 35 34 33 33 33 34
Lifted_Index
18 18 18 18 19 19 19 19 19 20 20 20 19 19 19 19 19 19 18 18 18 18
18 18 18 18 19 19 19 19 19 19 19 19 19 19 19 19 19 19 18 18 18 18
17 18 18 18 18 19 19 19 19 19 19 19 19 19 19 19 19 18 18 18 18 17
17 17 18 18 18 18 19 19 19 19 19 19 19 19 19 19 19 18 18 18 18 18
16 17 17 18 18 18 18 19 19 19 19 19 19 19 19 19 19 18 18 18 18 18
16 16 17 17 18 18 18 18 19 19 18 19 19 19 19 19 19 19 18 18 18 18
15 16 16 17 17 17 18 18 18 18 18 18 19 19 19 19 19 19 19 19 18 18
15 15 15 16 17 17 17 17 18 18 18 18 18 18 19 19 19 19 19 19 18 18
14 14 15 15 16 16 17 17 17 18 18 18 18 18 19 19 19 19 19 18 18 18
13 14 14 15 15 16 16 16 16 17 17 18 18 18 18 19 19 19 19 18 18 18
12 13 13 14 15 15 15 16 16 16 16 17 18 18 18 18 18 18 18 18 18 18
12 12 13 13 14 14 15 15 15 16 16 16 17 18 18 18 18 18 18 18 18 18
13 13 13 13 13 14 14 15 15 15 15 16 16 17 17 18 18 18 18 18 18 18
13 13 13 13 13 14 14 14 15 15 15 15 16 16 17 17 17 17 17 18 18 18